Orbital Elements at Epoch 2459000.5 (2020-May-31.0) TDB
Reference: JPL 25 (heliocentric ecliptic J2000)
Element | Value | Uncertainty (1-sigma) | Units |
e | .1896902431921306 | 3.3253e-08 | |
a | 2.388939473477792 | 8.0062e-09 | au |
q | 1.935780963782509 | 8.319e-08 | au |
i | 3.197436634074997 | 3.1513e-06 | deg |
node | 45.84057736450632 | 6.6124e-05 | deg |
peri | 353.835926430247 | 6.6851e-05 | deg |
M | 285.6930198445414 | 1.0491e-05 | deg |
tp | 2459278.876940743973 (2021-Mar-05.37694074) | 3.991e-05 | TDB |
period | 1348.671396121437 3.69 | 6.7799e-06 1.856e-08 | d yr |
n | .2669293654742751 | 1.3419e-09 | deg/d |
Q | 2.842097983173074 | 9.5249e-09 | au |
|
| | Orbit Determination Parameters
Additional Information
|